Flight Track Log - Related Links

Times and Time Zones

All times are in EDT time to prevent confusion due to time zone crossing. See the N700QA flight status page for this flight to view local times or setup timezone preferences in your user account.

Time Position Orientation Groundspeed Altitude Reporting Facility
EDT Latitude Longitude Course Direction KTS MPH feet Rate Location/Type
Mon 13:10:25 33.8308 -118.5358 172° South 263 303 6,500  Level Los Angeles Center
Mon 13:11:27 33.7556 -118.5239 172° South 276 318 8,700 2,032 Climbing Los Angeles Center
Mon 13:12:29 33.6772 -118.5022 167° South 295 339 10,700 1,694 Climbing Los Angeles Center
Mon 13:13:31 33.6431 -118.4111 114° Southeast 316 364 12,200 1,887 Climbing Los Angeles Center
Mon 13:14:33 33.6383 -118.2847 93° East 323 372 14,600 2,032 Climbing Los Angeles Center
Mon 13:15:35 33.6447 -118.1744 86° East 337 388 16,400 1,584 Climbing Los Angeles Center
Mon 13:16:38 33.6428 -118.0611 91° East 340 391 17,900 1,296 Climbing Los Angeles Center
Mon 13:17:40 33.6411 -117.9433 91° East 350 403 19,100 1,645 Climbing Los Angeles Center
Mon 13:18:42 33.6431 -117.7992 89° East 360 414 21,300 1,597 Climbing Los Angeles Center
Mon 13:19:44 33.6417 -117.6764 91° East 365 420 22,400 1,258 Climbing Los Angeles Center
Mon 13:20:46 33.6406 -117.5519 91° East 373 429 23,900 1,306 Climbing Los Angeles Center
Mon 13:21:48 33.6406 -117.4244 90° East 381 438 25,100 1,065 Climbing Los Angeles Center
Mon 13:22:50 33.6397 -117.2961 90° East 386 444 26,100 1,016 Climbing Los Angeles Center
Mon 13:23:52 33.6397 -117.1358 90° East 397 457 27,200 823 Climbing Los Angeles Center
Mon 13:24:54 33.6378 -117.0008 91° East 403 464 27,800 774 Climbing Los Angeles Center
Mon 13:25:56 33.6369 -116.8625 90° East 411 473 28,800 1,008 Climbing Los Angeles Center
Mon 13:26:59 33.6364 -116.7211 90° East 413 475 29,900 960 Climbing Los Angeles Center
Mon 13:28:01 33.6347 -116.5847 91° East 410 472 30,800 823 Climbing Los Angeles Center
Mon 13:29:03 33.6331 -116.4464 91° East 412 474 31,600 823 Climbing Los Angeles Center
Mon 13:30:05 33.6306 -116.3083 91° East 412 474 32,500 919 Climbing Los Angeles Center
Mon 13:31:07 33.6308 -116.1522 90° East 406 467 33,500 919 Climbing Los Angeles Center
Mon 13:32:09 33.6742 -116.0231 68° East 388 447 34,400 677 Climbing Los Angeles Center
Mon 13:33:11 33.7139 -115.9025 68° East 391 450 34,900 290 Climbing Los Angeles Center
Mon 13:34:13 33.7553 -115.7800 68° East 394 453 35,000 97 Climbing Los Angeles Center
Mon 13:35:15 33.7969 -115.6511 69° East 408 470 35,100 48 Climbing Los Angeles Center
Mon 13:36:17 33.8381 -115.5186 69° East 419 482 35,100  Level Los Angeles Center
Mon 13:37:19 33.8797 -115.3867 69° East 422 486 35,100  Level Los Angeles Center
Mon 13:38:21 33.9311 -115.2244 69° East 429 494 35,100  Level Los Angeles Center
Mon 13:39:24 33.9742 -115.0878 69° East 436 502 35,100  Level Los Angeles Center
Mon 13:40:26 34.0175 -114.9503 69° East 439 505 35,100  Level Los Angeles Center
Mon 13:41:28 34.0631 -114.8114 68° East 446 513 35,100  Level Los Angeles Center
Mon 13:42:30 34.1086 -114.6731 68° East 453 521 35,100  Level Los Angeles Center
Mon 13:43:32 34.1494 -114.5331 71° East 447 514 35,100  Level Los Angeles Center
Mon 13:44:34 34.1978 -114.3653 71° East 445 512 35,100  Level Los Angeles Center
Mon 13:45:20 34.2244 -114.2558 74° East 446 513 35,100  Level Albuquerque Center
Mon 13:46:22 34.2656 -114.1122 71° East 448 516 35,100  Level Albuquerque Center
Mon 13:47:24 34.3042 -113.9731 71° East 442 509 35,100  Level Albuquerque Center
Mon 13:48:26 34.3433 -113.8314 71° East 443 510 35,100  Level Albuquerque Center
Mon 13:49:28 34.3911 -113.6619 71° East 444 511 35,100  Level Albuquerque Center
Mon 13:50:30 34.4253 -113.5292 73° East 439 505 35,100  Level Albuquerque Center
Mon 13:51:32 34.4625 -113.3917 72° East 434 499 35,100  Level Albuquerque Center
Mon 13:52:34 34.4994 -113.2503 72° East 440 506 35,100  Level Albuquerque Center
Mon 13:53:36 34.5375 -113.1108 72° East 440 506 35,100  Level Albuquerque Center
Mon 13:54:38 34.5825 -112.9444 72° East 437 503 35,100  Level Albuquerque Center
Mon 13:55:40 34.6194 -112.8044 72° East 439 505 35,100  Level Albuquerque Center
Mon 13:56:42 34.6558 -112.6647 72° East 440 506 35,100  Level Albuquerque Center
Mon 13:57:44 34.6936 -112.5283 71° East 436 502 35,100 -48 Level Albuquerque Center
Mon 13:58:46 34.7275 -112.3878 74° East 437 503 35,000  Descending Albuquerque Center
Mon 13:59:48 34.7633 -112.2192 75° East 436 502 35,100 48 Climbing Albuquerque Center
Mon 14:00:50 34.7964 -112.0772 74° East 437 503 35,100  Level Albuquerque Center
Mon 14:01:52 34.8281 -111.9350 75° East 440 506 35,100  Level Albuquerque Center
Mon 14:02:54 34.8600 -111.7922 75° East 440 506 35,100  Level Albuquerque Center
Mon 14:03:56 34.8947 -111.6381 75° East 443 510 35,100  Level Albuquerque Center
Mon 14:04:58 34.9269 -111.4942 75° East 441 507 35,100 -48 Level Albuquerque Center
Mon 14:06:00 34.9586 -111.3494 75° East 441 507 35,000  Descending Albuquerque Center
Mon 14:07:02 34.9911 -111.2033 75° East 445 512 35,100 48 Climbing Albuquerque Center
Mon 14:08:04 35.0297 -111.0261 75° East 450 518 35,100  Level Albuquerque Center
Mon 14:09:06 35.0606 -110.8781 76° East 451 519 35,100  Level Albuquerque Center
Mon 14:10:08 35.0961 -110.7153 75° East 447 514 35,100  Level Albuquerque Center
Mon 14:11:10 35.1247 -110.5747 76° East 446 513 35,100  Level Albuquerque Center
Mon 14:12:12 35.1567 -110.4361 74° East 443 510 35,100  Level Albuquerque Center
Mon 14:13:14 35.1925 -110.2719 75° East 446 513 35,100  Level Albuquerque Center
Mon 14:14:16 35.2231 -110.1317 75° East 448 516 35,100  Level Albuquerque Center
Mon 14:15:17 35.2581 -109.9661 75° East 449 517 35,100  Level Albuquerque Center
Mon 14:16:19 35.2886 -109.8231 75° East 453 521 35,100  Level Albuquerque Center
Mon 14:17:21 35.3203 -109.6522 77° East 459 528 35,100  Level Albuquerque Center
Mon 14:18:23 35.3506 -109.5086 75° East 458 527 35,100  Level Albuquerque Center
Mon 14:19:25 35.3858 -109.3408 75° East 457 526 35,100  Level Albuquerque Center
Mon 14:20:27 35.4142 -109.1956 77° East 458 527 35,100  Level Albuquerque Center
Mon 14:21:29 35.4483 -109.0275 76° East 458 527 35,100  Level Albuquerque Center
Mon 14:22:31 35.4775 -108.8825 76° East 459 528 35,100 387 Level Albuquerque Center
Mon 14:23:33 35.5186 -108.7189 73° East 454 522 35,900 732 Climbing Albuquerque Center
Mon 14:24:34 35.5586 -108.5839 70° East 444 511 36,600 537 Climbing Albuquerque Center
Mon 14:25:36 35.6006 -108.4258 72° East 439 505 37,000 194 Climbing Albuquerque Center
Mon 14:26:38 35.6381 -108.2894 71° East 441 507 37,000 48 Level Albuquerque Center
Mon 14:27:40 35.6803 -108.1244 72° East 451 519 37,100 48 Climbing Albuquerque Center
Mon 14:28:42 35.7172 -107.9847 72° East 452 520 37,100  Level Albuquerque Center
Mon 14:29:44 35.7544 -107.8436 72° East 454 522 37,100 -48 Level Albuquerque Center
Mon 14:30:46 35.7964 -107.6794 72° East 452 520 37,000  Descending Albuquerque Center
Mon 14:31:48 35.8336 -107.5378 72° East 454 522 37,100  Climbing Albuquerque Center
Mon 14:32:50 35.8758 -107.3736 72° East 452 520 37,000 -49 Descending Albuquerque Center
Mon 14:33:51 35.9122 -107.2333 72° East 450 518 37,000  Level Albuquerque Center
Mon 14:34:53 35.9544 -107.0764 72° East 452 520 37,000  Level Albuquerque Center
Mon 14:35:55 35.9917 -106.9289 73° East 450 518 37,000 48 Level Albuquerque Center
Mon 14:36:57 36.0294 -106.7808 72° East 451 519 37,100  Climbing Albuquerque Center
Mon 14:37:59 36.0681 -106.6308 72° East 454 522 37,000 -48 Descending Albuquerque Center
Mon 14:39:01 36.1047 -106.4828 73° East 453 521 37,000  Level Albuquerque Center
Mon 14:40:03 36.1500 -106.3044 72° East 453 521 37,000  Level Albuquerque Center
Mon 14:41:05 36.1833 -106.1519 75° East 456 525 37,000 49 Level Albuquerque Center
Mon 14:42:06 36.1947 -105.9897 85° East 468 539 37,100  Climbing Albuquerque Center
Mon 14:43:08 36.2097 -105.8219 84° East 475 547 37,000 -48 Descending Albuquerque Center
Mon 14:44:10 36.2300 -105.6658 81° East 474 545 37,000  Level Albuquerque Center
Mon 14:45:12 36.2517 -105.4997 81° East 469 540 37,000  Level Albuquerque Center
Mon 14:46:14 36.3017 -105.3558 67° East 454 522 37,000  Level Albuquerque Center
Mon 14:47:16 36.3497 -105.2108 68° East 449 517 37,000 48 Level Albuquerque Center
Mon 14:48:18 36.4014 -105.0339 70° East 459 528 37,100  Climbing Albuquerque Center
Mon 14:49:19 36.4489 -104.8836 69° East 462 532 37,000 -49 Descending Albuquerque Center
Mon 14:50:21 36.4928 -104.7342 70° East 459 528 37,000  Level Albuquerque Center
Mon 14:51:23 36.5372 -104.5842 70° East 457 526 37,000  Level Albuquerque Center
Mon 14:52:25 36.5817 -104.4350 70° East 456 525 37,000  Level Albuquerque Center
Mon 14:53:27 36.6250 -104.2867 70° East 452 520 37,000  Level Albuquerque Center
Mon 14:54:29 36.6694 -104.1383 69° East 454 522 37,000  Level Albuquerque Center
Mon 14:55:30 36.7175 -103.9794 69° East 453 521 37,000  Level Albuquerque Center
Mon 14:56:32 36.7581 -103.8403 70° East 450 518 37,000  Level Albuquerque Center
Mon 14:57:34 36.8053 -103.6756 70° East 453 521 37,000  Level Albuquerque Center
Mon 14:58:36 36.8458 -103.5339 70° East 454 522 37,000  Level Albuquerque Center
Mon 14:59:38 36.8931 -103.3683 70° East 455 524 37,000  Level Albuquerque Center
Mon 15:00:39 36.9331 -103.2261 71° East 455 524 37,000  Level Albuquerque Center
Mon 15:01:41 36.9797 -103.0589 71° East 457 526 37,000  Level Albuquerque Center
Mon 15:02:43 37.0206 -102.9150 70° East 458 527 37,000  Level Albuquerque Center
Mon 15:03:45 37.0678 -102.7444 71° East 462 532 37,000  Level Albuquerque Center
Mon 15:04:47 37.1081 -102.5972 71° East 465 535 37,000  Level Albuquerque Center
Mon 15:05:49 37.1522 -102.4453 70° East 474 545 37,000  Level Albuquerque Center
Mon 15:06:50 37.1969 -102.2747 72° East 469 540 37,000  Level Albuquerque Center
Mon 15:07:52 37.2394 -102.1233 71° East 472 543 37,000 48 Level Albuquerque Center
Mon 15:08:54 37.2847 -101.9439 72° East 480 552 37,100  Climbing Albuquerque Center
Mon 15:09:38 37.3114 -101.8439 71° East 477 549 37,000 -57 Descending Kansas City Center
Mon 15:10:40 37.3575 -101.6714 71° East 470 541 37,000  Level Kansas City Center
Mon 15:11:42 37.3981 -101.5197 71° East 475 547 37,000 48 Level Kansas City Center
Mon 15:12:44 37.4442 -101.3447 72° East 475 547 37,100 48 Climbing Kansas City Center
Mon 15:13:46 37.4839 -101.1950 71° East 473 544 37,100 -48 Level Kansas City Center
Mon 15:14:48 37.5311 -101.0172 71° East 474 545 37,000 -48 Descending Kansas City Center
Mon 15:15:50 37.5722 -100.8614 72° East 471 542 37,000  Level Kansas City Center
Mon 15:16:51 37.6106 -100.7044 73° East 466 536 37,000  Level Kansas City Center
Mon 15:17:53 37.6506 -100.5489 72° East 466 536 37,000  Level Kansas City Center
Mon 15:18:55 37.6919 -100.3861 72° East 463 533 37,000  Level Kansas City Center
Mon 15:19:58 37.7306 -100.2378 72° East 465 535 37,000  Level Kansas City Center
Mon 15:21:00 37.7750 -100.0622 72° East 469 540 37,000  Level Kansas City Center
Mon 15:22:02 37.8119 -99.9125 73° East 466 536 37,000  Level Kansas City Center
Mon 15:23:04 37.8553 -99.7372 73° East 468 539 37,000  Level Kansas City Center
Mon 15:24:06 37.8917 -99.5878 73° East 464 534 37,000  Level Kansas City Center
Mon 15:25:08 37.9300 -99.4236 73° East 466 536 37,000  Level Kansas City Center
Mon 15:26:10 37.9672 -99.2653 73° East 467 537 37,000  Level Kansas City Center
Mon 15:27:12 38.0053 -99.1097 73° East 463 533 37,000  Level Kansas City Center
Mon 15:28:14 38.0433 -98.9522 73° East 466 536 37,000  Level Kansas City Center
Mon 15:29:16 38.0875 -98.7644 73° East 463 533 37,000  Level Kansas City Center
Mon 15:30:18 38.1258 -98.6089 73° East 462 532 37,000  Level Kansas City Center
Mon 15:31:20 38.1642 -98.4489 73° East 469 540 37,000  Level Kansas City Center
Mon 15:32:22 38.2000 -98.2906 74° East 463 533 37,000  Level Kansas City Center
Mon 15:33:24 38.2364 -98.1336 74° East 459 528 37,000  Level Kansas City Center
Mon 15:34:25 38.2722 -97.9772 74° East 457 526 37,000  Level Kansas City Center
Mon 15:35:27 38.3086 -97.8208 73° East 455 524 37,000  Level Kansas City Center
Mon 15:36:29 38.3453 -97.6647 73° East 457 526 37,000  Level Kansas City Center
Mon 15:37:31 38.3878 -97.4778 74° East 455 524 37,000  Level Kansas City Center
Mon 15:38:33 38.4231 -97.3217 74° East 457 526 37,000  Level Kansas City Center
Mon 15:39:35 38.4589 -97.1636 74° East 456 525 37,000  Level Kansas City Center
Mon 15:40:37 38.4942 -97.0036 74° East 453 521 37,000  Level Kansas City Center
Mon 15:41:39 38.5294 -96.8419 74° East 454 522 37,000  Level Kansas City Center
Mon 15:42:41 38.5639 -96.6817 75° East 451 519 37,000  Level Kansas City Center
Mon 15:43:43 38.5986 -96.5225 74° East 450 518 37,000  Level Kansas City Center
Mon 15:44:45 38.6317 -96.3622 75° East 448 516 37,000  Level Kansas City Center
Mon 15:45:47 38.6661 -96.2031 74° East 448 516 37,000  Level Kansas City Center
Mon 15:46:49 38.6964 -96.0561 75° East 446 513 37,000  Level Kansas City Center
Mon 15:47:51 38.7300 -95.8964 75° East 445 512 37,000  Level Kansas City Center
Mon 15:48:53 38.7656 -95.7264 75° East 455 524 37,000  Level Kansas City Center
Mon 15:49:55 38.7947 -95.5828 75° East 446 513 37,000  Level Kansas City Center
Mon 15:50:57 38.8303 -95.4131 75° East 443 510 37,000  Level Kansas City Center
Mon 15:51:58 38.8603 -95.2683 75° East 441 507 37,000  Level Kansas City Center
Mon 15:53:00 38.8944 -95.0981 75° East 444 511 37,000  Level Kansas City Center
Mon 15:54:02 38.9242 -94.9522 75° East 444 511 37,000  Level Kansas City Center
Mon 15:55:04 38.9586 -94.7806 75° East 448 516 37,000  Level Kansas City Center
Mon 15:56:06 38.9883 -94.6325 75° East 447 514 37,000 48 Level Kansas City Center
Mon 15:57:08 39.0167 -94.4847 76° East 447 514 37,100  Climbing Kansas City Center
Mon 15:58:10 39.0486 -94.3108 77° East 449 517 37,000 -48 Descending Kansas City Center
Mon 15:59:12 39.0772 -94.1622 76° East 449 517 37,000  Level Kansas City Center
Mon 16:00:14 39.1103 -93.9881 76° East 450 518 37,000  Level Kansas City Center
Mon 16:01:15 39.1392 -93.8381 76° East 451 519 37,000  Level Kansas City Center
Mon 16:02:17 39.1708 -93.6631 77° East 452 520 37,000 48 Level Kansas City Center
Mon 16:03:19 39.1994 -93.5133 76° East 452 520 37,100 48 Climbing Kansas City Center
Mon 16:04:21 39.2303 -93.3456 77° East 472 543 37,100 -48 Level Kansas City Center
Mon 16:05:23 39.2589 -93.1906 77° East 459 528 37,000  Descending Kansas City Center
Mon 16:06:25 39.2875 -93.0400 76° East 443 510 37,100  Climbing Kansas City Center
Mon 16:07:27 39.3200 -92.8467 78° East 460 529 37,000  Descending Kansas City Center
Mon 16:08:29 39.3478 -92.6925 77° East 452 520 37,100 48 Climbing Kansas City Center
Mon 16:09:31 39.3753 -92.5372 77° East 448 516 37,100  Level Kansas City Center
Mon 16:10:33 39.4033 -92.3853 77° East 444 511 37,100  Level Kansas City Center
Mon 16:11:34 39.4300 -92.2303 77° East 444 511 37,100  Level Kansas City Center
Mon 16:12:36 39.4628 -92.0419 77° East 449 517 37,100  Level Kansas City Center
Mon 16:13:38 39.4908 -91.8814 77° East 457 526 37,100  Level Kansas City Center
Mon 16:14:40 39.5175 -91.7286 77° East 447 514 37,100  Level Kansas City Center
Mon 16:15:42 39.5422 -91.5731 78° East 445 512 37,100  Level Kansas City Center
Mon 16:16:44 39.5672 -91.4172 78° East 446 513 37,100  Level Kansas City Center
Mon 16:17:46 39.5975 -91.2317 78° East 444 511 37,100  Level Kansas City Center
Mon 16:18:48 39.6233 -91.0700 78° East 450 518 37,100  Level Kansas City Center
Mon 16:19:50 39.6500 -90.9072 78° East 456 525 37,100 -145 Level Kansas City Center
Mon 16:20:52 39.6756 -90.7489 78° East 452 520 36,800 -581 Descending Kansas City Center
Mon 16:21:54 39.7006 -90.5903 78° East 450 518 35,900 -823 Descending Kansas City Center
Mon 16:22:56 39.7250 -90.4369 78° East 444 511 35,100 -435 Descending Kansas City Center
Mon 16:23:58 39.7525 -90.2619 78° East 430 495 35,000 -48 Descending Kansas City Center
Mon 16:25:00 39.7758 -90.1219 78° East 417 480 35,000  Level Kansas City Center
Mon 16:26:02 39.7967 -89.9803 79° East 408 470 35,000  Level Kansas City Center
Mon 16:27:04 39.8172 -89.8419 79° East 398 458 35,000 -242 Level Kansas City Center
Mon 16:28:06 39.8389 -89.7014 79° East 398 458 34,500 -581 Descending Kansas City Center
Mon 16:29:08 39.8442 -89.5522 87° East 411 473 33,800 -823 Descending Kansas City Center
Mon 16:30:10 39.8433 -89.3817 90° East 401 461 32,800 -919 Descending Kansas City Center
Mon 16:31:12 39.8447 -89.2450 89° East 389 448 31,900 -871 Descending Kansas City Center
Mon 16:32:14 39.8450 -89.1094 90° East 380 437 31,000 -919 Descending Kansas City Center
Mon 16:33:16 39.8447 -88.9750 90° East 375 432 30,000 -871 Descending Kansas City Center
Mon 16:34:18 39.8461 -88.8422 89° East 370 426 29,200 -1,161 Descending Kansas City Center
Mon 16:35:20 39.8467 -88.7094 90° East 369 425 27,600 -1,742 Descending Kansas City Center
Mon 16:36:22 39.8469 -88.5414 90° East 383 441 25,600 -1,500 Descending Kansas City Center
Mon 16:37:24 39.8442 -88.4008 91° East 389 448 24,500 -774 Descending Kansas City Center
Mon 16:38:26 39.8447 -88.2644 90° East 383 441 24,000 -242 Descending Kansas City Center
Mon 16:39:28 39.8439 -88.1378 90° East 372 428 24,000 76 Level Kansas City Center
Mon 16:39:45 39.8428 -88.0794 91° East 365 420 24,100  Climbing Indianapolis Center
Mon 16:40:47 39.8411 -87.9469 91° East 364 419 24,000 -532 Descending Indianapolis Center
Mon 16:41:49 39.8406 -87.8119 90° East 370 426 23,000 -1,220 Descending Indianapolis Center
Mon 16:42:50 39.8386 -87.6786 91° East 368 423 21,500 -1,512 Descending Indianapolis Center
Mon 16:43:52 39.8364 -87.5461 91° East 365 420 19,900 -1,500 Descending Indianapolis Center
Mon 16:44:54 39.8358 -87.4164 90° East 358 412 18,400 -1,500 Descending Indianapolis Center
Mon 16:45:56 39.8328 -87.2878 92° East 355 409 16,800 -1,610 Descending Indianapolis Center
Mon 16:46:57 39.8322 -87.1644 90° East 343 395 15,100 -2,000 Descending Indianapolis Center
Mon 16:47:59 39.8303 -87.0431 91° East 336 387 12,700 -1,500 Descending Indianapolis Center
Mon 16:49:01 39.8258 -86.9169 93° East 298 343 12,000 -1,161 Descending Indianapolis Center
Mon 16:50:03 39.8211 -86.8203 94° East 268 308 10,300 -1,659 Descending Indianapolis Center
Mon 16:51:04 39.8228 -86.7208 89° East 270 311 8,600 -1,512 Descending Indianapolis Center
Mon 16:52:06 39.8192 -86.6264 93° East 263 303 7,200 -774 Descending Indianapolis Center
Mon 16:53:08 39.8172 -86.5389 92° East 246 283 7,000 -49 Descending Indianapolis Center
Mon 16:54:09 39.8183 -86.4508 89° East 241 277 7,100 49 Climbing Indianapolis Center
Mon 16:55:11 39.7639 -86.4042 147° Southeast 253 291 7,100 -726 Level Indianapolis Center
Mon 16:56:13 39.7089 -86.4492 212° Southwest 244 281 5,600 -1,317 Descending Indianapolis Center
Mon 16:57:14 39.6603 -86.5181 228° Southwest 229 264 4,400 -683 Descending Indianapolis Center
Mon 16:58:16 39.6206 -86.5744 228° Southwest 218 251 4,200 -145 Descending Indianapolis Center
Mon 16:59:18 39.5642 -86.5547 165° South 221 254 4,100 -244 Descending Indianapolis Center
Mon 17:00:19 39.5578 -86.4842 97° East 217 250 3,700 -293 Descending Indianapolis Center
Mon 17:01:21 39.5939 -86.4392 44° Northeast 189 217 3,500 -339 Descending Indianapolis Center
Mon 17:02:23 39.6278 -86.3992 42° Northeast 175 201 3,000 -699 Descending Indianapolis Center
Mon 17:03:04 39.6500 -86.3667 48° Northeast 146 168 2,300 -832 Descending Indianapolis TRACON
Mon 17:04:04 39.6833 -86.3333 38° Northeast 146 168 1,600 -439 Descending Indianapolis TRACON
Mon 17:06:29 39.7158 -86.2839 49° Northeast 56 64 800 -233 Descending Indianapolis Center
Mon 17:07:30 39.7189 -86.2783 54° Northeast 29 33 800  Level Indianapolis Center
Mon 17:08:32 39.7239 -86.2711 48° Northeast 28 32 800  Level Indianapolis Center
Mon 17:09:34 39.7261 -86.2728 330° Northwest 17 20 800  Level Indianapolis Center
Mon 17:10:35 39.7264 -86.2728 360° North 10 12 800  Level Indianapolis Center

Login

Don't have an account? Register now (free) for customized features, flight alerts, and more!